Résultats de la compétition "Interrégionale Ammerschwihr" du 29-04-2007 organisée par le club 6804
     
  Télécharger le fichier CSV.  
     
     

 Circuit "A"

Licence Nom Prénom Temps CN
précédent
Score sur
la course
Différence
9497BOICHUTCharly1:37:04N/A5955N/A
1518MULLERMarc1:40:28N/A5754N/A
1908MEYERCorentin1:40:42N/A5741N/A
4445POIRSONThomas1:41:49N/A5678N/A
5794MENGINPierre1:44:20N/A5541N/A
5796MENGINBastien1:46:33N/A5425N/A
12759SCHAMBERGERPierre1:51:15N/A5196N/A
10442KERVARECJohann1:58:12N/A4891N/A
18689MARTINFalk2:01:40N/A4751N/A
10259HAURYAndre2:09:26N/A4466N/A
10814HILDEBRANDPierre2:15:30N/A4266N/A
8379BOISSONNETNicolas2:25:40N/A3968N/A
366VESCOVOJ-Albert2:31:24N/A3818N/A
16683NOEGELENFabian2:40:13N/A3608N/A
10998RENAUDBernard2:53:12N/A3338N/A
2501THOMASSINSamuel3:11:17N/A3022N/A
12896BOTOJeremiN/AN/A0N/A
17647STEINThomasN/AN/A0N/A
11875FRANCOISGeraldN/AN/A0N/A
747TINCHANTJohannN/AN/A0N/A

  Indice de confiance du circuit (moyenne des différences entre CN et score sur la course des 3 à 10 premiers) : 657




 Circuit "B"

Licence Nom Prénom Temps CN
précédent
Score sur
la course
Différence
4677PINEAULaurent1:42:05N/A5390N/A
11615ANDRESAugustin1:57:43N/A4675N/A
12778FROELICHERVincent2:04:38N/A4415N/A
6819HOUDAYERPhilippe2:11:15N/A4193N/A
346LAHAUSSEOlivier2:18:46N/A3965N/A
11391CLEMENT-AGONIBenjamin2:20:41N/A3911N/A
13062STEINNicolas2:22:55N/A3850N/A
314VESCOVOJ-CharlesN/AN/A0N/A
7004PHILIPPERenaudN/AN/A0N/A
302BAGUEREYBaptisteN/AN/A0N/A

  Indice de confiance du circuit (moyenne des différences entre CN et score sur la course des 3 à 10 premiers) : 463




 Circuit "C"

Licence Nom Prénom Temps CN
précédent
Score sur
la course
Différence
343KOEBERLEAlain1:19:22N/A5310N/A
13040VILLARChristophe1:19:37N/A5293N/A
736POURREAlain1:21:42N/A5158N/A
4683MAITREThierry1:22:56N/A5081N/A
3407FLAMBEAUBruno1:24:26N/A4991N/A
13620VIELBrieuc1:26:40N/A4863N/A
7569PERRINGuillaume1:32:24N/A4561N/A
2369BRELLMANNHubert1:32:59N/A4532N/A
11440DUPOIRIEUXGilles1:34:22N/A4466N/A
2379BILQUEZEric1:35:28N/A4414N/A
312JOLYThierry1:36:04N/A4387N/A
12828REICHAlain1:37:20N/A4330N/A
1808GUTSCHENRITTERGuy1:38:24N/A4283N/A
11513HAURYGilles1:39:25N/A4239N/A
7094MENGINThomas1:41:19N/A4159N/A
7092MENGINRoland1:42:38N/A4106N/A
4586MITTERANDBruno1:43:24N/A4076N/A
12766LOGERobert1:47:24N/A3924N/A
10882SCHOULLEROlivier1:48:07N/A3898N/A
5631BETTINGERJ-Michel1:50:01N/A3831N/A
3413HUROTMichel1:50:05N/A3828N/A
334DENAVEJ-Gabriel1:52:41N/A3740N/A
13331SEILLERFabien1:53:17N/A3720N/A
10883WEISSEGilles1:56:02N/A3632N/A
15852CLEYET-MERLEChristophe2:08:12N/A3287N/A
1897FRICKBernard2:20:43N/A2995N/A
10144GRANDEMANGEPhilippe2:22:34N/A2956N/A
14582LAZARDTiphaine2:25:51N/A2889N/A
17080SCHAMBERGERDaniel2:28:05N/A2846N/A
10721MAHLERArthur2:46:50N/A2526N/A
13636KORCHAKTom2:53:20N/A2431N/A
1752GRANSARTRenaud3:07:25N/A2249N/A
11392GAILLETFrançoisN/AN/A0N/A
10719MAHLERGeorgesN/AN/A0N/A
2372DIETSCHBernardN/AN/A0N/A
13240ARNOULDBrunoN/AN/A0N/A
1186JANANDPatrickN/AN/A0N/A
2286CREUXJoelN/AN/A0N/A
700LALLEMENDEricN/AN/A0N/A
6477D'HARREVILLEDominiqN/AN/A0N/A
4216GROSJEANThierryN/AN/A0N/A

  Indice de confiance du circuit (moyenne des différences entre CN et score sur la course des 3 à 10 premiers) : 178




 Circuit "D"

Licence Nom Prénom Temps CN
précédent
Score sur
la course
Différence
745TINCHANTEstelle1:27:50N/A4398N/A
5795MENGINHelene1:42:35N/A3766N/A
13142LOEWAngelique1:52:00N/A3449N/A
13061STEINVirginie2:03:10N/A3137N/A
318KOEBERLEManon2:10:01N/A2971N/A
720CLOEZVeronique2:10:32N/A2960N/A
14216VILLARIsabelle2:12:00N/A2927N/A
13833TRIMAILLEIsabelle2:12:48N/A2909N/A
632DUBROCAChristele2:13:42N/A2889N/A
12763LASSEIGNELaurent2:18:54N/A2781N/A
3632ROUMANIEVincianeN/AN/A0N/A
13688FRANCOISAlineN/AN/A0N/A
3301BOISSONNETYolandeN/AN/A0N/A
7387FOUCAULTMyriamN/AN/A0N/A
18358EVENAurélieN/AN/A0N/A
18730DALONLaurenceN/AN/A0N/A
4678PINEAUNoelleN/AN/A0N/A

  Indice de confiance du circuit (moyenne des différences entre CN et score sur la course des 3 à 10 premiers) : 753




 Circuit "E"

Licence Nom Prénom Temps CN
précédent
Score sur
la course
Différence
2480SCHMIDTJacques0:52:33N/A5673N/A
2937STRIBEAUMichel0:55:42N/A5352N/A
7911PERRINJ-Luc1:01:23N/A4856N/A
10725MOUGELLyse1:11:16N/A4183N/A
738POURREValerie1:12:54N/A4089N/A
706BACHEREdith1:13:04N/A4080N/A
740RUAUDAlain1:14:56N/A3978N/A
2712VUILLETChristian1:16:46N/A3883N/A
10146ETIENNEDominique1:18:55N/A3777N/A
2370CHARLOTPatrick1:18:57N/A3776N/A
3312CORDIERJacques1:19:26N/A3753N/A
11505CORREYves1:20:07N/A3721N/A
13637KORCHAKLena1:20:34N/A3700N/A
9924BOICHUTIsabelle1:23:12N/A3583N/A
1710CERINIJ-Michel1:23:50N/A3556N/A
10496DUPOIRIEUXSophie1:25:16N/A3496N/A
13692HAURYEvelyne1:25:16N/A3496N/A
8217ANDRESClaire1:25:39N/A3480N/A
10903RAVENELManon1:27:48N/A3395N/A
1487MARCHESINSylvie1:30:07N/A3308N/A
2361THIERYAnnick1:33:11N/A3199N/A
13687EHRHARDTCecile1:33:48N/A3178N/A
15332MEYERPatricia1:34:28N/A3156N/A
12145WISSONEmilie1:34:59N/A3138N/A
10560MARTINBernard1:36:21N/A3094N/A
6478D'HARREVILLEAnne1:37:15N/A3065N/A
16130ANCELJulie1:37:46N/A3049N/A
11510BRELLMANNEvelyne1:38:35N/A3024N/A
10720GUIGNONSabine1:38:44N/A3019N/A
13710WISSONBernard1:38:46N/A3018N/A
4391DODINYves1:38:58N/A3012N/A
336DUBREZDaniel1:40:38N/A2962N/A
10260LEBIHANSarah1:41:55N/A2925N/A
9077DALLA-COSTAChristia1:42:39N/A2904N/A
11389CLEMENT-AGONIJ-Pierre1:43:32N/A2879N/A
3414HUROTFlorence1:45:02N/A2838N/A
3904JOUFFROYChristine1:46:23N/A2802N/A
310JOLYMauricette1:46:25N/A2801N/A
2536MOUCHETTEAlain1:46:29N/A2800N/A
11507LEBIHANMartine1:46:56N/A2788N/A
15297BOEHMYves1:48:03N/A2759N/A
2524DUVALJacques1:49:29N/A2723N/A
3267PETIT-JEANLeon1:51:47N/A2667N/A
12767LOGESophie1:56:09N/A2567N/A
10902RAVENELVeronique2:00:33N/A2473N/A
14223FISCHERGuy2:08:49N/A2314N/A
8090PETIT-JEANMartine2:23:27N/A2078N/A
2530LOCUSSERobertN/AN/A0N/A
15326DULIEUXFrancisN/AN/A0N/A
12829REICHM-LouiseN/AN/A0N/A
2522DUMONTNorbertN/AN/A0N/A
340FISCHERM-DominiqueN/AN/A0N/A
2386SUTTERJeanN/AN/A0N/A

  Indice de confiance du circuit (moyenne des différences entre CN et score sur la course des 3 à 10 premiers) : 145




 Circuit "F"

Licence Nom Prénom Temps CN
précédent
Score sur
la course
Différence
3303MOUGELGabriel0:43:38N/A4938N/A
3651VAGNERChristine0:51:13N/A4207N/A
3108GANZITTIAlexandre0:51:40N/A4170N/A
2263LEMBLEAndre0:52:53N/A4074N/A
1086ROBERTChristian0:53:18N/A4042N/A
2271HOFERERAlbert0:55:28N/A3884N/A
2558VOGTClaude0:56:03N/A3844N/A
703ABISSEJacques1:00:00N/A3591N/A
363THIERRY-FISCHERChri1:02:00N/A3475N/A
5866HITZLeo1:03:04N/A3416N/A
746TINCHANTJ-Marc1:08:00N/A3168N/A
2512ASTNorbert1:11:45N/A3003N/A
3288ARNOULDChantal1:13:22N/A2937N/A
1448KENANEAbdelkader1:14:22N/A2897N/A
326BERBETTGabriel1:14:46N/A2882N/A
2445RIFFARDJ-Claude1:15:20N/A2860N/A
1087ROBERTMartine1:16:53N/A2802N/A
1895SALORT - METZSylvie1:17:18N/A2787N/A
370WOEHRLEGilbert1:20:09N/A2688N/A
748TINCHANTPascale1:20:48N/A2667N/A
2552KNOBLOCHFrancis1:26:05N/A2503N/A
2485JOLYAlain1:36:03N/A2243N/A
2387SUTTEROdile1:36:52N/A2224N/A
7182BERGERM-Jose1:37:14N/A2216N/A
7204CURTDaniel1:40:02N/A2154N/A
15324ETIENNEBernadette1:40:46N/A2138N/A
3717GEROMEYDominique2:03:19N/A1747N/A
2539MOUCHETTERegine2:14:19N/A1604N/A
16129THIEBAUTEvelyneN/AN/A0N/A
4389THIEBAULDGeorgesN/AN/A0N/A
739RUAUDAgnesN/AN/A0N/A
12102BOUVERETMichelleN/AN/A0N/A
16128HODETEdithN/AN/A0N/A

  Indice de confiance du circuit (moyenne des différences entre CN et score sur la course des 3 à 10 premiers) : 203




 Circuit "G"

Licence Nom Prénom Temps CN
précédent
Score sur
la course
Différence
18770VARINFrederic0:42:17N/A3747N/A
2557VOGTChristiane0:47:45N/A3318N/A
17674LUTZLudivine0:51:06N/A3100N/A
1883HITZRene0:51:23N/A3083N/A
701ABISSEGisele0:55:32N/A2853N/A
352MULLERRaymond0:57:42N/A2745N/A
2446RIFFARDM-Lucie0:59:44N/A2652N/A
2547DESAINTJANClaude1:01:43N/A2567N/A
1443BEGUINOTJacques1:02:30N/A2535N/A
4392DODINGenevieve1:03:25N/A2498N/A
3302JEANPIERREM-Therese1:04:56N/A2440N/A
3185PASCAUDClaire1:06:02N/A2399N/A
368VESCOVOOdile1:06:11N/A2394N/A
2262LEMBLEAdeline1:08:50N/A2301N/A
2511ASTClaudine1:10:11N/A2257N/A
13070ASMUSSENDaniele1:15:09N/A2108N/A
2553KNOBLOCHMichele1:15:53N/A2088N/A
7093MENGINMonique1:19:07N/A2002N/A
7910MOUGELDanielle1:29:11N/A1776N/A
2487JOLYFrancoise1:33:14N/A1699N/A
1444BEGUINOTM-Louise1:35:00N/A1668N/A
14078BLAUDEZJocelyne1:37:49N/A1620N/A

  Indice de confiance du circuit (moyenne des différences entre CN et score sur la course des 3 à 10 premiers) : 135




 Circuit "H"

Licence Nom Prénom Temps CN
précédent
Score sur
la course
Différence
14657ARNOULDLouis0:57:52N/A4052N/A
6479D'HARREVILLERenaud1:05:36N/A3574N/A
14451RIBAUDOJasmin1:25:58N/A2727N/A
17998CROUVISIERKevin1:42:26N/A2289N/A
12146WISSONFlorent1:42:53N/A2279N/A
13693HAURYMarc1:52:42N/A2080N/A
18284ROESLELaurent2:35:00N/A1513N/A
18731DALONAlexandreN/AN/A0N/A
10722MAHLERFelixN/AN/A0N/A
14079MONTFRONDP-AlainN/AN/A0N/A

  Indice de confiance du circuit (moyenne des différences entre CN et score sur la course des 3 à 10 premiers) : 577




 Circuit "I"

Licence Nom Prénom Temps CN
précédent
Score sur
la course
Différence
6480D'HARREVILLEKenny0:55:59N/A3633N/A
11511BRELLMANNMichel0:56:06N/A3626N/A
5436FLAMBEAUMathilde1:02:42N/A3244N/A
10904RAVENELFanny1:05:26N/A3109N/A
15739BELLIOlivier1:10:45N/A2875N/A
9439MANSUYP-Yves1:10:46N/A2874N/A
7260SUTTEROlivier1:13:38N/A2763N/A
10561DUPOIRIEUXJules1:14:08N/A2744N/A
8639BILQUEZHugo1:18:01N/A2607N/A
14478LADEVEZECharlotte1:23:47N/A2428N/A
17394ASMUSSENPascal1:27:12N/A2333N/A
7912PERRINM-Claudine1:35:09N/A2138N/A
17618ECKESElise1:47:21N/A1895N/A
17082SCHAMBERGERAnne1:48:44N/A1871N/A
12375ASMUSSENFlorence1:53:43N/A1789N/A
17626MERCIERThierry1:55:39N/A1759N/A
15295WISSONPetra2:13:21N/A1525N/A
9035RUHLMANNMarionN/AN/A0N/A
18467GOETTMANNPierre-AiméN/AN/A0N/A
18285GAERTNERCélineN/AN/A0N/A
15478LYSKAWANicolasN/AN/A0N/A
14967DUPUYMathisN/AN/A0N/A

  Indice de confiance du circuit (moyenne des différences entre CN et score sur la course des 3 à 10 premiers) : 353




 Circuit "J"

Licence Nom Prénom Temps CN
précédent
Score sur
la course
Différence
15847BACKSCHEIDEREmilie1:00:22N/A3185N/A
17027CHAVANCEManon1:10:30N/A2727N/A
11748STRIBEAUMelanie1:27:40N/A2193N/A
12768LOGELucie1:32:29N/A2079N/A
10077POURREMarion1:42:42N/A1872N/A

  Indice de confiance du circuit (moyenne des différences entre CN et score sur la course des 3 à 10 premiers) : 535




 Circuit "K"

Licence Nom Prénom Temps CN
précédent
Score sur
la course
Différence
11092HUROTBenjamin0:22:40N/A3060N/A
15979POIROTDelphine0:24:39N/A2813N/A
12769LOGEPaul0:26:02N/A2664N/A
17494ANDRIAMORAZAFIHANTASophie0:33:20N/A2081N/A
11508LEBIHANBarbara0:33:25N/A2075N/A
18468GOETTMANNThomas0:35:29N/A1955N/A
16648JANANDPierre-Louis0:37:01N/A1874N/A
10024RUHLMANNElodie0:47:38N/A1456N/A
8092PETIT-JEANMarie0:48:36N/A1427N/A
9281FLAMBEAULorene0:54:56N/A1262N/A
13638KORCHAKNathalie1:03:00N/A1101N/A
725LAURENTTherese1:22:16N/A843N/A
2744VUILLETGermaine2:02:02N/A568N/A
17778KOPFFClementN/AN/A0N/A

  Indice de confiance du circuit (moyenne des différences entre CN et score sur la course des 3 à 10 premiers) : 391




 Circuit "L"

Licence Nom Prénom Temps CN
précédent
Score sur
la course
Différence
13477DIETSCHJoel0:19:34N/A2084N/A
14273POURREJeremi0:19:46N/A2063N/A
13872JOUFFROYAxel0:21:50N/A1868N/A
17495ANDRIAMORAZAFIHANTANirina0:33:30N/A1217N/A
17263ANDRESHugoN/AN/A0N/A
15327HUROTEdenN/AN/A0N/A

  Indice de confiance du circuit (moyenne des différences entre CN et score sur la course des 3 à 10 premiers) : 354




 Circuit "JAL"

Licence Nom Prénom Temps CN
précédent
Score sur
la course
Différence
17376RUHLMANNTheo0:16:00N/A2810N/A
12563CARULaura0:16:15N/A2767N/A
10429THIERYAgathe0:18:40N/A2409N/A
13639KORCHAKEmilie0:19:23N/A2320N/A
14215VILLARZoe0:19:23N/A2320N/A
13873JOUFFROYSophia0:22:56N/A1961N/A
17074FRANCOISLysa0:26:17N/A1711N/A
15392BOISSONNETTom0:27:26N/A1639N/A
16724BOISSONNETLea0:28:10N/A1596N/A
13960GROSJEANApolline0:30:22N/A1481N/A
12770LOGEJeanne0:33:03N/A1360N/A
16132GROSJEANCapucine0:36:24N/A1235N/A
18733DALONClara0:54:03N/A832N/A
18699VILLARAlix0:54:11N/A830N/A

  Indice de confiance du circuit (moyenne des différences entre CN et score sur la course des 3 à 10 premiers) : 424






 Retour